This is the latest recevied weather packets stored in our database for station/object WA6ODQ-13. If no packets are shown the sender has not sent any weather packets the latest 10 day(s).
| Time | Temp. | Humidity | Pressure | Rain* | Wind** | Luminosity | Snow |
|---|---|---|---|---|---|---|---|
| 1788113129 | 23.89° C | 56% | 1011.7 hPa | 0 mm | - | 559 W/m² | - |
| 1788112829 | 23.33° C | 58% | 1011.6 hPa | 0 mm | - | 550 W/m² | - |
| 1788112523 | 22.78° C | 59% | 1012 hPa | 0 mm | - | 540 W/m² | - |
| 1788112218 | 23.33° C | 59% | 1012.1 hPa | 0 mm | - | 529 W/m² | - |
| 1788111914 | 22.78° C | 60% | 1012 hPa | 0 mm | - | 520 W/m² | - |
| 1788111614 | 22.22° C | 61% | 1011.9 hPa | 0 mm | - | 508 W/m² | - |
| 1788111309 | 21.67° C | 63% | 1012.2 hPa | 0 mm | - | 497 W/m² | - |
| 1788111004 | 21.67° C | 63% | 1011.8 hPa | 0 mm | - | 485 W/m² | - |
| 1788110701 | 21.67° C | 64% | 1012.1 hPa | 0 mm | - | 472 W/m² | - |
| 1788110396 | 21.67° C | 63% | 1012.1 hPa | 0 mm | - | 460 W/m² | - |
| 1788110092 | 21.11° C | 64% | 1011.9 hPa | 0 mm | - | 447 W/m² | - |
| 1788109791 | 21.11° C | 63% | 1012 hPa | 0 mm | - | 435 W/m² | - |
| 1788109486 | 20.56° C | 65% | 1011.9 hPa | 0 mm | - | 422 W/m² | - |
| 1788109184 | 21.11° C | 64% | 1012 hPa | 0 mm | - | 410 W/m² | - |
| 1788108881 | 20.56° C | 65% | 1011.9 hPa | 0 mm | - | 396 W/m² | - |
| 1788108576 | 20.56° C | 66% | 1011.9 hPa | 0 mm | - | 384 W/m² | - |
| 1788108272 | 20° C | 66% | 1011.7 hPa | 0 mm | - | 371 W/m² | - |
| 1788107968 | 19.44° C | 68% | 1011.8 hPa | 0 mm | - | 359 W/m² | - |
| 1788107659 | 18.89° C | 70% | 1012 hPa | 0 mm | - | 343 W/m² | - |
| 1788107358 | 18.89° C | 71% | 1012 hPa | 0 mm | - | 325 W/m² | - |
| 1788107054 | 18.33° C | 72% | 1011.9 hPa | 0 mm | - | 58 W/m² | - |
| 1788106749 | 18.33° C | 73% | 1012 hPa | 0 mm | - | 54 W/m² | - |
| 1788106448 | 17.78° C | 76% | 1011.8 hPa | 0 mm | - | 41 W/m² | - |
| 1788106143 | 17.78° C | 75% | 1011.9 hPa | 0 mm | - | 43 W/m² | - |
| 1788105839 | 17.78° C | 76% | 1012.1 hPa | 0 mm | - | 39 W/m² | - |
* Rain latest hour (hover to see other rain measurements)
** Current wind speed in m/s (hover to see current wind gust speed)